Regional Weather Roundup
Issued by NWS

Home | Current Version | Previous Version | Graphics & Text | Print | Product List | Glossary Off
Versions: 1 2 3 4 5 6 7 8 9 10 11 12 13 14 15 16 17 18 19 20 21 22 23 24 25 26 27 28 29 30 31 32 33 34 35 36 37 38 39 40 41 42 43 44 45 46 47 48 49 50

232
ASUS43 KFSD 182102
RWRSD

WEATHER ROUNDUP FOR SOUTH DAKOTA
NATIONAL WEATHER SERVICE SIOUX FALLS SD
300 PM CST SAT NOV 18 2017

NOTE: "FAIR" INDICATES FEW OR NO CLOUDS BELOW 12,000 FEET WITH NO
SIGNIFICANT WEATHER AND/OR OBSTRUCTIONS TO VISIBILITY.


SDZ001>005-009-010-012>017-182200-
NORTHWEST AND NORTH CENTRAL SOUTH DAKOTA

CITY           SKY/WX    TMP DP  RH WIND       PRES   REMARKS
BUFFALO          N/A     42  21  43 NW31G39   30.01S
FAITH            N/A     37  25  61 NW12      30.09S
MOBRIDGE       SUNNY     35  17  47 NW16      30.08S WCI  25
$$

SDZ012>016-024>037-041>051-057-063-072>074-182200-
SOUTHWEST AND SOUTH CENTRAL SOUTH DAKOTA

CITY           SKY/WX    TMP DP  RH WIND       PRES   REMARKS
RAPID CTY ARPT PTSUNNY   46  17  31 NW17      30.10F
PIERRE         SUNNY     35  21  56 NW14      30.11F WCI  26
CUSTER         MOSUNNY   35  13  40 W18G24    30.07F WCI  24
ELLSWORTH AFB  SUNNY     45  16  31 NW15G25   30.09F
PHILIP         CLOUDY    44  25  47 NW12      30.11S
PINE RIDGE     MOSUNNY   45  18  34 NW10G17   30.13F
SPEARFISH      FAIR      41  16  36 W17G26    30.10S
WINNER         FAIR      42  25  50 NW17G26   30.11S
$$

SDZ004>011-016>023-039-040-182200-
NORTHEAST SOUTH DAKOTA

CITY           SKY/WX    TMP DP  RH WIND       PRES   REMARKS
ABERDEEN       SUNNY     32  14  47 NW20G30   30.08R WCI  20
WATERTOWN      SUNNY     30  13  49 NW22      30.00S WCI  17
BROOKINGS      SUNNY     32  16  51 NW22G30   30.00S WCI  19
SISSETON         N/A     29  12  49 NW21G30   30.02S WCI  16
$$

SDZ017-020-022-023-036>040-048>070-182200-
SOUTHEAST SOUTH DAKOTA

CITY           SKY/WX    TMP DP  RH WIND       PRES   REMARKS
SIOUX FALLS    SUNNY     37  20  50 NW23G30   30.03R
HURON          SUNNY     35  14  42 NW21      30.08S WCI  24
CHAMBERLAIN    SUNNY     38  23  54 NW14G21   30.12S
MITCHELL       SUNNY     37  18  46 NW20      30.10S
YANKTON        SUNNY     37  20  50 NW18G26   30.09R
$$

ABBREVIATIONS USED IN REMARKS
   TC - TEMPERATURE IN CELSIUS
  WCI - WIND CHILL INDEX
   HX - HEAT INDEX
  VSB - VISIBILITY





USA.gov is the U.S. government's official web portal to all federal, state and local government web resources and services.